,,,PA_Meas_PMT16A,,PR_Meas_QMR101_102,,RH_Meas_QMH101,,SR_Meas_QMS101,,TA_Meas_QMH101,,GenWind,,GenWind,
date,time,status,PA,status,PR,status,RH,status,SR,status,TA,status,DirAvg,status,SpdAvg,
2012-06-05, 00:00:04,VALID,1008.57,VALID,0,VALID,104,VALID,0,VALID,25.8186,VALID,248,VALID,0,
2012-06-05, 00:01:04,VALID,1008.57,VALID,0,VALID,104,VALID,0,VALID,25.8186,VALID,248,VALID,0,
2012-06-05, 00:02:04,VALID,1008.56,VALID,0,VALID,104,VALID,0,VALID,25.8381,VALID,248,VALID,0,
2012-06-05, 00:03:04,VALID,1008.57,VALID,0,VALID,104,VALID,0,VALID,25.8166,VALID,248,VALID,0,
2012-06-05, 00:04:04,VALID,1008.55,VALID,0,VALID,104,VALID,0,VALID,25.8381,VALID,248,VALID,0,
2012-06-05, 00:05:04,VALID,1008.52,VALID,0,VALID,104,VALID,0,VALID,25.8576,VALID,248,VALID,0,
2012-06-05, 00:06:04,VALID,1008.45,VALID,0,VALID,104,VALID,0,VALID,25.8166,VALID,248,VALID,0,
2012-06-05, 00:07:04,VALID,1008.42,VALID,0,VALID,104,VALID,0,VALID,25.8166,VALID,248,VALID,0,
2012-06-05, 00:08:04,VALID,1008.43,VALID,0,VALID,104,VALID,0,VALID,25.8381,VALID,248,VALID,0,
2012-06-05, 00:09:04,VALID,1008.38,VALID,0,VALID,104,VALID,0,VALID,25.8186,VALID,248,VALID,0,
2012-06-05, 00:10:04,VALID,1008.42,VALID,0,VALID,104,VALID,0,VALID,25.8186,VALID,248,VALID,0,
2012-06-05, 00:11:04,VALID,1008.4,VALID,0,VALID,104,VALID,0,VALID,25.8186,VALID,248,VALID,0,
2012-06-05, 00:12:04,VALID,1008.36,VALID,0,VALID,104,VALID,0,VALID,25.7991,VALID,248,VALID,0,
2012-06-05, 00:13:04,VALID,1008.34,VALID,0,VALID,104,VALID,0,VALID,25.7991,VALID,248,VALID,0,
2012-06-05, 00:14:04,VALID,1008.31,VALID,0,VALID,104,VALID,0,VALID,25.7991,VALID,248,VALID,0,
2012-06-05, 00:15:04,VALID,1008.29,VALID,0,VALID,104,VALID,0,VALID,25.7601,VALID,248,VALID,0,
2012-06-05, 00:16:04,VALID,1008.25,VALID,0,VALID,104,VALID,0,VALID,25.7601,VALID,248,VALID,0,
2012-06-05, 00:17:04,VALID,1008.23,VALID,0,VALID,104,VALID,0,VALID,25.7621,VALID,248,VALID,0,
2012-06-05, 00:18:04,VALID,1008.18,VALID,0,VALID,104,VALID,0,VALID,25.7406,VALID,248,VALID,0,
2012-06-05, 00:19:04,VALID,1008.2,VALID,0,VALID,104,VALID,0,VALID,25.7406,VALID,248,VALID,0,
2012-06-05, 00:20:04,VALID,1008.19,VALID,0,VALID,104,VALID,0,VALID,25.7211,VALID,248,VALID,0,
2012-06-05, 00:21:04,VALID,1008.19,VALID,0,VALID,104,VALID,0,VALID,25.7211,VALID,248,VALID,0,
2012-06-05, 00:22:04,VALID,1008.2,VALID,0,VALID,104,VALID,0,VALID,25.7016,VALID,248,VALID,0,
2012-06-05, 00:23:04,VALID,1008.19,VALID,0,VALID,104,VALID,0,VALID,25.7211,VALID,248,VALID,0,
2012-06-05, 00:24:04,VALID,1008.18,VALID,0,VALID,104,VALID,0.112112,VALID,25.6997,VALID,248,VALID,0,
2012-06-05, 00:25:04,VALID,1008.21,VALID,0,VALID,104,VALID,0.112112,VALID,25.6997,VALID,248,VALID,0,
2012-06-05, 00:26:04,VALID,1008.18,VALID,0,VALID,104,VALID,0.112112,VALID,25.7016,VALID,248,VALID,0,
2012-06-05, 00:27:04,VALID,1008.16,VALID,0,VALID,104,VALID,0.112112,VALID,25.6997,VALID,248,VALID,0,
2012-06-05, 00:28:04,VALID,1008.16,VALID,0,VALID,104,VALID,0,VALID,25.6802,VALID,248,VALID,0,
2012-06-05, 00:29:04,VALID,1008.14,VALID,0,VALID,104,VALID,0.112112,VALID,25.6607,VALID,248,VALID,0,
2012-06-05, 00:30:04,VALID,1008.11,VALID,0,VALID,104,VALID,0.112112,VALID,25.6607,VALID,248,VALID,0,
2012-06-05, 00:31:04,VALID,1008.08,VALID,0,VALID,104,VALID,0,VALID,25.6607,VALID,248,VALID,0,
2012-06-05, 00:32:04,VALID,1008.07,VALID,0,VALID,104,VALID,0.112112,VALID,25.6392,VALID,248,VALID,0,
2012-06-05, 00:33:04,VALID,1008.05,VALID,0,VALID,104,VALID,0.112112,VALID,25.6607,VALID,248,VALID,0,
2012-06-05, 00:34:04,VALID,1008.03,VALID,0,VALID,104,VALID,0.112112,VALID,25.6412,VALID,248,VALID,0,
2012-06-05, 00:35:04,VALID,1008,VALID,0,VALID,104,VALID,0.112112,VALID,25.6412,VALID,248,VALID,0,
2012-06-05, 00:36:04,VALID,1008.01,VALID,0,VALID,104,VALID,0.112112,VALID,25.6607,VALID,248,VALID,0,
2012-06-05, 00:37:04,VALID,1007.99,VALID,0,VALID,104,VALID,0.112112,VALID,25.6412,VALID,248,VALID,0,
2012-06-05, 00:38:04,VALID,1007.95,VALID,0,VALID,104,VALID,0,VALID,25.6431,VALID,248,VALID,0,
2012-06-05, 00:39:04,VALID,1007.95,VALID,0,VALID,104,VALID,0,VALID,25.6431,VALID,248,VALID,0,
2012-06-05, 00:40:04,VALID,1007.93,VALID,0,VALID,104,VALID,0,VALID,25.6431,VALID,248,VALID,0,
2012-06-05, 00:41:04,VALID,1007.9,VALID,0,VALID,104,VALID,0,VALID,25.6431,VALID,248,VALID,0,
2012-06-05, 00:42:04,VALID,1007.9,VALID,0,VALID,104,VALID,0,VALID,25.6431,VALID,248,VALID,0,
2012-06-05, 00:43:04,VALID,1007.92,VALID,0,VALID,104,VALID,0,VALID,25.6431,VALID,248,VALID,0,
2012-06-05, 00:44:04,VALID,1007.92,VALID,0,VALID,104,VALID,0,VALID,25.6431,VALID,248,VALID,0,
2012-06-05, 00:45:04,VALID,1007.93,VALID,0,VALID,104,VALID,0,VALID,25.6821,VALID,248,VALID,0,
2012-06-05, 00:46:04,VALID,1007.95,VALID,0,VALID,104,VALID,0,VALID,25.6821,VALID,248,VALID,0,
2012-06-05, 00:47:04,VALID,1007.97,VALID,0,VALID,104,VALID,0,VALID,25.6821,VALID,248,VALID,0,
2012-06-05, 00:48:04,VALID,1007.97,VALID,0,VALID,104,VALID,0,VALID,25.6821,VALID,248,VALID,0,
2012-06-05, 00:49:04,VALID,1007.98,VALID,0,VALID,104,VALID,0,VALID,25.7211,VALID,248,VALID,0,
2012-06-05, 00:50:04,VALID,1007.96,VALID,0,VALID,104,VALID,0,VALID,25.7016,VALID,248,VALID,0,
2012-06-05, 00:51:04,VALID,1007.95,VALID,0,VALID,104,VALID,0,VALID,25.6821,VALID,248,VALID,0,
2012-06-05, 00:52:04,VALID,1007.93,VALID,0,VALID,104,VALID,0,VALID,25.7016,VALID,248,VALID,0,
2012-06-05, 00:53:04,VALID,1007.93,VALID,0,VALID,104,VALID,0,VALID,25.7016,VALID,248,VALID,0,
2012-06-05, 00:54:04,VALID,1007.91,VALID,0,VALID,104,VALID,0,VALID,25.6821,VALID,248,VALID,0,
2012-06-05, 00:55:04,VALID,1007.92,VALID,0,VALID,104,VALID,0,VALID,25.6626,VALID,248,VALID,0,
2012-06-05, 00:56:04,VALID,1007.92,VALID,0,VALID,104,VALID,0,VALID,25.6821,VALID,248,VALID,0,
2012-06-05, 00:57:04,VALID,1007.9,VALID,0,VALID,104,VALID,0,VALID,25.6626,VALID,248,VALID,0,
2012-06-05, 00:58:04,VALID,1007.85,VALID,0,VALID,104,VALID,0,VALID,25.6412,VALID,248,VALID,0,
2012-06-05, 00:59:04,VALID,1007.84,VALID,0,VALID,104,VALID,0,VALID,25.6431,VALID,248,VALID,0,
2012-06-05, 01:00:04,VALID,1007.83,VALID,0,VALID,104,VALID,0,VALID,25.6431,VALID,248,VALID,0,
2012-06-05, 01:01:04,VALID,1007.8,VALID,0,VALID,104,VALID,0,VALID,25.6236,VALID,248,VALID,0,
2012-06-05, 01:02:04,VALID,1007.81,VALID,0,VALID,104,VALID,0,VALID,25.6236,VALID,248,VALID,0,
2012-06-05, 01:03:04,VALID,1007.79,VALID,0,VALID,104,VALID,0,VALID,25.6041,VALID,248,VALID,0,
2012-06-05, 01:04:04,VALID,1007.78,VALID,0,VALID,104,VALID,0,VALID,25.5827,VALID,248,VALID,0,
2012-06-05, 01:05:04,VALID,1007.73,VALID,0,VALID,104,VALID,0,VALID,25.6041,VALID,248,VALID,0,
2012-06-05, 01:06:04,VALID,1007.76,VALID,0,VALID,104,VALID,0,VALID,25.6236,VALID,248,VALID,0,
2012-06-05, 01:07:04,VALID,1007.74,VALID,0,VALID,104,VALID,0,VALID,25.5827,VALID,248,VALID,0,
2012-06-05, 01:08:04,VALID,1007.73,VALID,0,VALID,104,VALID,0,VALID,25.6256,VALID,248,VALID,0.432422,
2012-06-05, 01:09:04,VALID,1007.73,VALID,0,VALID,104,VALID,0,VALID,25.6041,VALID,246,VALID,0.557813,
2012-06-05, 01:10:04,VALID,1007.72,VALID,0,VALID,104,VALID,0,VALID,25.6041,VALID,245,VALID,0.223438,
2012-06-05, 01:11:04,VALID,1007.71,VALID,0,VALID,104,VALID,0,VALID,25.6041,VALID,245,VALID,0,
2012-06-05, 01:12:04,VALID,1007.76,VALID,0,VALID,104,VALID,0,VALID,25.6041,VALID,300,VALID,0.596484,
2012-06-05, 01:13:04,VALID,1007.74,VALID,0,VALID,104,VALID,0,VALID,25.6236,VALID,300,VALID,0.573047,
2012-06-05, 01:14:04,VALID,1007.76,VALID,0,VALID,104,VALID,0,VALID,25.6236,VALID,300,VALID,0.329688,
2012-06-05, 01:15:04,VALID,1007.76,VALID,0,VALID,104,VALID,0,VALID,25.6236,VALID,300,VALID,0.321094,
2012-06-05, 01:16:04,VALID,1007.74,VALID,0,VALID,104,VALID,0,VALID,25.6041,VALID,300,VALID,0.125391,
2012-06-05, 01:17:04,VALID,1007.73,VALID,0,VALID,104,VALID,0,VALID,25.6256,VALID,300,VALID,0.188672,
2012-06-05, 01:18:04,VALID,1007.72,VALID,0,VALID,104,VALID,0,VALID,25.6041,VALID,300,VALID,0.184375,
2012-06-05, 01:19:04,VALID,1007.7,VALID,0,VALID,104,VALID,0,VALID,25.6236,VALID,300,VALID,0.327344,
2012-06-05, 01:20:04,VALID,1007.63,VALID,0,VALID,104,VALID,0,VALID,25.6431,VALID,300,VALID,0.302734,
2012-06-05, 01:21:04,VALID,1007.61,VALID,0,VALID,104,VALID,0,VALID,25.6431,VALID,300,VALID,0.274219,
2012-06-05, 01:22:04,VALID,1007.61,VALID,0,VALID,104,VALID,0,VALID,25.6431,VALID,300,VALID,0.167578,
2012-06-05, 01:23:04,VALID,1007.59,VALID,0,VALID,104,VALID,0,VALID,25.6431,VALID,300,VALID,0,
2012-06-05, 01:24:04,VALID,1007.62,VALID,0,VALID,104,VALID,0,VALID,25.6841,VALID,300,VALID,0,
2012-06-05, 01:25:04,VALID,1007.62,VALID,0,VALID,104,VALID,0,VALID,25.6431,VALID,300,VALID,0.00664063,
2012-06-05, 01:26:04,VALID,1007.61,VALID,0,VALID,104,VALID,0,VALID,25.6431,VALID,300,VALID,0.451172,
2012-06-05, 01:27:04,VALID,1007.6,VALID,0,VALID,104,VALID,0,VALID,25.6431,VALID,300,VALID,0.469141,
2012-06-05, 01:28:04,VALID,1007.62,VALID,0,VALID,104,VALID,0,VALID,25.6236,VALID,300,VALID,0.562109,
2012-06-05, 01:29:04,VALID,1007.64,VALID,0,VALID,104,VALID,0,VALID,25.6431,VALID,300,VALID,0.025,
2012-06-05, 01:30:04,VALID,1007.63,VALID,0,VALID,104,VALID,0,VALID,25.6236,VALID,300,VALID,0,
2012-06-05, 01:31:04,VALID,1007.65,VALID,0,VALID,104,VALID,0,VALID,25.6431,VALID,300,VALID,0.00078125,
2012-06-05, 01:32:04,VALID,1007.65,VALID,0,VALID,104,VALID,0,VALID,25.6431,VALID,299,VALID,0.327734,
2012-06-05, 01:33:04,VALID,1007.61,VALID,0,VALID,104,VALID,0,VALID,25.6431,VALID,300,VALID,0.289453,
2012-06-05, 01:34:04,VALID,1007.61,VALID,0,VALID,104,VALID,0,VALID,25.6431,VALID,300,VALID,0.39375,
2012-06-05, 01:35:04,VALID,1007.6,VALID,0,VALID,104,VALID,0,VALID,25.6431,VALID,300,VALID,0.547656,
2012-06-05, 01:36:04,VALID,1007.59,VALID,0,VALID,104,VALID,0,VALID,25.6236,VALID,300,VALID,0.431641,
2012-06-05, 01:37:04,VALID,1007.59,VALID,0,VALID,104,VALID,0,VALID,25.6041,VALID,300,VALID,0.502344,
2012-06-05, 01:38:04,VALID,1007.63,VALID,0,VALID,104,VALID,0,VALID,25.5846,VALID,300,VALID,0.187109,
2012-06-05, 01:39:04,VALID,1007.69,VALID,0,VALID,104,VALID,0,VALID,25.5846,VALID,300,VALID,0,
2012-06-05, 01:40:04,VALID,1007.7,VALID,0,VALID,104,VALID,0,VALID,25.5846,VALID,299,VALID,0.208203,
2012-06-05, 01:41:04,VALID,1007.71,VALID,0,VALID,104,VALID,0,VALID,25.6061,VALID,299,VALID,0,
2012-06-05, 01:42:04,VALID,1007.71,VALID,0,VALID,104,VALID,0,VALID,25.5846,VALID,299,VALID,0,
2012-06-05, 01:43:04,VALID,1007.71,VALID,0,VALID,104,VALID,0,VALID,25.5846,VALID,299,VALID,0,
2012-06-05, 01:44:04,VALID,1007.7,VALID,0,VALID,104,VALID,0,VALID,25.6061,VALID,300,VALID,0,
2012-06-05, 01:45:04,VALID,1007.67,VALID,0,VALID,104,VALID,0,VALID,25.5846,VALID,300,VALID,0,
2012-06-05, 01:46:04,VALID,1007.67,VALID,0,VALID,104,VALID,0,VALID,25.5846,VALID,300,VALID,0.258984,
2012-06-05, 01:47:04,VALID,1007.66,VALID,0,VALID,104,VALID,0,VALID,25.5651,VALID,300,VALID,0.267188,
2012-06-05, 01:48:04,VALID,1007.63,VALID,0,VALID,104,VALID,0,VALID,25.5651,VALID,300,VALID,0.378516,
2012-06-05, 01:49:04,VALID,1007.63,VALID,0,VALID,104,VALID,0,VALID,25.5261,VALID,300,VALID,0.472266,
2012-06-05, 01:50:04,VALID,1007.61,VALID,0,VALID,104,VALID,0,VALID,25.5066,VALID,300,VALID,0.317187,
2012-06-05, 01:51:04,VALID,1007.59,VALID,0,VALID,104,VALID,0,VALID,25.4871,VALID,300,VALID,0.112109,
2012-06-05, 01:52:04,VALID,1007.61,VALID,0,VALID,104,VALID,0,VALID,25.4871,VALID,300,VALID,0,
2012-06-05, 01:53:04,VALID,1007.63,VALID,0,VALID,104,VALID,0,VALID,25.4677,VALID,300,VALID,0,
2012-06-05, 01:54:04,VALID,1007.64,VALID,0,VALID,104,VALID,0,VALID,25.4267,VALID,300,VALID,0,
2012-06-05, 01:55:04,VALID,1007.65,VALID,0,VALID,104,VALID,0,VALID,25.4482,VALID,300,VALID,0,
2012-06-05, 01:56:04,VALID,1007.65,VALID,0,VALID,104,VALID,0,VALID,25.4657,VALID,300,VALID,0,
2012-06-05, 01:57:04,VALID,1007.6,VALID,0,VALID,104,VALID,0,VALID,25.4871,VALID,300,VALID,0,
2012-06-05, 01:58:04,VALID,1007.6,VALID,0,VALID,104,VALID,0,VALID,25.5066,VALID,300,VALID,0,
2012-06-05, 01:59:04,VALID,1007.58,VALID,0,VALID,104,VALID,0,VALID,25.4871,VALID,300,VALID,0,
2012-06-05, 02:00:04,VALID,1007.57,VALID,0,VALID,104,VALID,0,VALID,25.4677,VALID,300,VALID,0,
2012-06-05, 02:01:04,VALID,1007.56,VALID,0,VALID,104,VALID,0,VALID,25.4267,VALID,300,VALID,0,
2012-06-05, 02:02:04,VALID,1007.54,VALID,0,VALID,104,VALID,0.112112,VALID,25.4287,VALID,300,VALID,0,
2012-06-05, 02:03:04,VALID,1007.49,VALID,0,VALID,104,VALID,0,VALID,25.3877,VALID,300,VALID,0,
2012-06-05, 02:04:04,VALID,1007.48,VALID,0,VALID,104,VALID,0,VALID,25.4287,VALID,300,VALID,0,
2012-06-05, 02:05:04,VALID,1007.46,VALID,0,VALID,104,VALID,0,VALID,25.3897,VALID,300,VALID,0,
2012-06-05, 02:06:04,VALID,1007.44,VALID,0,VALID,104,VALID,0,VALID,25.3702,VALID,300,VALID,0,
2012-06-05, 02:07:04,VALID,1007.43,VALID,0,VALID,104,VALID,0.112112,VALID,25.3488,VALID,300,VALID,0,
2012-06-05, 02:08:04,VALID,1007.43,VALID,0,VALID,104,VALID,0,VALID,25.3293,VALID,300,VALID,0.552734,
2012-06-05, 02:09:04,VALID,1007.4,VALID,0,VALID,104,VALID,0,VALID,25.3702,VALID,300,VALID,0.617188,
2012-06-05, 02:10:04,VALID,1007.34,VALID,0,VALID,104,VALID,0,VALID,25.3702,VALID,16,VALID,0.704297,
2012-06-05, 02:11:04,VALID,1007.32,VALID,0,VALID,104,VALID,0,VALID,25.3897,VALID,28,VALID,0.669531,
2012-06-05, 02:12:04,VALID,1007.32,VALID,0,VALID,104,VALID,0,VALID,25.4092,VALID,36,VALID,0.546094,
2012-06-05, 02:13:04,VALID,1007.31,VALID,0,VALID,104,VALID,0,VALID,25.4092,VALID,36,VALID,0.630469,
2012-06-05, 02:14:04,VALID,1007.31,VALID,0,VALID,104,VALID,0,VALID,25.3897,VALID,36,VALID,0.671094,
2012-06-05, 02:15:04,VALID,1007.29,VALID,0,VALID,104,VALID,0,VALID,25.3507,VALID,36,VALID,0.0582031,
2012-06-05, 02:16:04,VALID,1007.3,VALID,0,VALID,104,VALID,0,VALID,25.3117,VALID,36,VALID,0,
2012-06-05, 02:17:04,VALID,1007.29,VALID,0,VALID,104,VALID,0,VALID,25.2727,VALID,36,VALID,0,
2012-06-05, 02:18:04,VALID,1007.29,VALID,0,VALID,104,VALID,0,VALID,25.2532,VALID,36,VALID,0.198828,
2012-06-05, 02:19:04,VALID,1007.29,VALID,0,VALID,104,VALID,0,VALID,25.2123,VALID,36,VALID,0.245703,
2012-06-05, 02:20:04,VALID,1007.32,VALID,0,VALID,104,VALID,0,VALID,25.2123,VALID,36,VALID,0.137891,
2012-06-05, 02:21:04,VALID,1007.32,VALID,0,VALID,104,VALID,0,VALID,25.1928,VALID,36,VALID,0.160156,
2012-06-05, 02:22:04,VALID,1007.3,VALID,0,VALID,104,VALID,0,VALID,25.2142,VALID,36,VALID,0,
2012-06-05, 02:23:04,VALID,1007.3,VALID,0,VALID,104,VALID,0,VALID,25.1752,VALID,36,VALID,0.124609,
2012-06-05, 02:24:04,VALID,1007.29,VALID,0,VALID,104,VALID,0,VALID,25.1733,VALID,36,VALID,0.330078,
2012-06-05, 02:25:04,VALID,1007.28,VALID,0,VALID,104,VALID,0.112112,VALID,25.1733,VALID,70,VALID,0.750781,
2012-06-05, 02:26:04,VALID,1007.28,VALID,0,VALID,104,VALID,0,VALID,25.1928,VALID,97,VALID,0.902344,
2012-06-05, 02:27:04,VALID,1007.26,VALID,0,VALID,104,VALID,0,VALID,25.2142,VALID,97,VALID,0.617188,
2012-06-05, 02:28:04,VALID,1007.23,VALID,0,VALID,104,VALID,0,VALID,25.2142,VALID,120,VALID,0.771875,
2012-06-05, 02:29:04,VALID,1007.19,VALID,0,VALID,104,VALID,0,VALID,25.2337,VALID,120,VALID,0.238672,
2012-06-05, 02:30:04,VALID,1007.19,VALID,0,VALID,104,VALID,0,VALID,25.2337,VALID,120,VALID,0.151562,
2012-06-05, 02:31:04,VALID,1007.21,VALID,0,VALID,104,VALID,0,VALID,25.2337,VALID,120,VALID,0.0164062,
2012-06-05, 02:32:04,VALID,1007.21,VALID,0,VALID,104,VALID,0,VALID,25.2142,VALID,120,VALID,0,
2012-06-05, 02:33:04,VALID,1007.23,VALID,0,VALID,104,VALID,0,VALID,25.2337,VALID,120,VALID,0.177734,
2012-06-05, 02:34:04,VALID,1007.22,VALID,0,VALID,104,VALID,0.112112,VALID,25.2318,VALID,120,VALID,0.616016,
2012-06-05, 02:35:04,VALID,1007.24,VALID,0,VALID,104,VALID,0,VALID,25.2532,VALID,120,VALID,0.0148437,
2012-06-05, 02:36:04,VALID,1007.22,VALID,0,VALID,104,VALID,0,VALID,25.2532,VALID,120,VALID,0.0671875,
2012-06-05, 02:37:04,VALID,1007.19,VALID,0,VALID,104,VALID,0,VALID,25.2727,VALID,120,VALID,0,
2012-06-05, 02:38:04,VALID,1007.21,VALID,0,VALID,104,VALID,0,VALID,25.2727,VALID,120,VALID,0,
2012-06-05, 02:39:04,VALID,1007.25,VALID,0,VALID,104,VALID,0,VALID,25.2727,VALID,120,VALID,0,
2012-06-05, 02:40:04,VALID,1007.24,VALID,0,VALID,104,VALID,0,VALID,25.2123,VALID,120,VALID,0,
2012-06-05, 02:41:04,VALID,1007.22,VALID,0,VALID,104,VALID,0,VALID,25.2142,VALID,120,VALID,0,
2012-06-05, 02:42:04,VALID,1007.18,VALID,0,VALID,104,VALID,0,VALID,25.1928,VALID,120,VALID,0,
2012-06-05, 02:43:04,VALID,1007.15,VALID,0,VALID,104,VALID,0,VALID,25.1947,VALID,120,VALID,0.295312,
2012-06-05, 02:44:04,VALID,1007.13,VALID,0,VALID,104,VALID,0,VALID,25.1148,VALID,120,VALID,0.297656,
2012-06-05, 02:45:04,VALID,1007.09,VALID,0,VALID,104,VALID,0,VALID,25.0759,VALID,120,VALID,0.135156,
2012-06-05, 02:46:04,VALID,1007.08,VALID,0,VALID,104,VALID,0,VALID,25.0583,VALID,120,VALID,0.267578,
2012-06-05, 02:47:04,VALID,1007.07,VALID,0,VALID,104,VALID,0,VALID,25.0564,VALID,120,VALID,0.340234,
2012-06-05, 02:48:04,VALID,1007.03,VALID,0,VALID,104,VALID,0,VALID,25.0388,VALID,120,VALID,0.273438,
2012-06-05, 02:49:04,VALID,1007.06,VALID,0,VALID,104,VALID,0,VALID,24.9998,VALID,120,VALID,0.174609,
2012-06-05, 02:50:04,VALID,1007.07,VALID,0,VALID,104,VALID,0,VALID,24.9979,VALID,120,VALID,0.187891,
2012-06-05, 02:51:04,VALID,1007.09,VALID,0,VALID,104,VALID,0,VALID,25.0388,VALID,120,VALID,0,
2012-06-05, 02:52:04,VALID,1007.14,VALID,0,VALID,104,VALID,0,VALID,25.0602,VALID,120,VALID,0.298047,
2012-06-05, 02:53:04,VALID,1007.15,VALID,0,VALID,104,VALID,0,VALID,25.0388,VALID,120,VALID,0.431641,
2012-06-05, 02:54:04,VALID,1007.12,VALID,0,VALID,104,VALID,0,VALID,25.0388,VALID,120,VALID,0.520703,
2012-06-05, 02:55:04,VALID,1007.1,VALID,0,VALID,104,VALID,0,VALID,25.0583,VALID,120,VALID,0.345313,
2012-06-05, 02:56:04,VALID,1007.05,VALID,0,VALID,104,VALID,0,VALID,25.0583,VALID,120,VALID,0.258594,
2012-06-05, 02:57:04,VALID,1007.05,VALID,0,VALID,104,VALID,0,VALID,25.0583,VALID,120,VALID,0.467578,
2012-06-05, 02:58:04,VALID,1007.06,VALID,0,VALID,104,VALID,0,VALID,25.0583,VALID,120,VALID,0.280469,
2012-06-05, 02:59:04,VALID,1007.05,VALID,0,VALID,104,VALID,0,VALID,25.0778,VALID,120,VALID,0.0105469,
2012-06-05, 03:00:04,VALID,1007.06,VALID,0,VALID,104,VALID,0,VALID,25.0973,VALID,120,VALID,0,
2012-06-05, 03:01:04,VALID,1007.07,VALID,0,VALID,104,VALID,0,VALID,25.1167,VALID,120,VALID,0,
2012-06-05, 03:02:04,VALID,1007.11,VALID,0,VALID,104,VALID,0,VALID,25.1167,VALID,120,VALID,0,
2012-06-05, 03:03:04,VALID,1007.14,VALID,0,VALID,104,VALID,0,VALID,25.0973,VALID,120,VALID,0,
2012-06-05, 03:04:04,VALID,1007.18,VALID,0,VALID,104,VALID,0,VALID,25.0583,VALID,120,VALID,0,
2012-06-05, 03:05:04,VALID,1007.18,VALID,0,VALID,104,VALID,0,VALID,25.0602,VALID,120,VALID,0.296484,
2012-06-05, 03:06:04,VALID,1007.17,VALID,0,VALID,104,VALID,0,VALID,25.0388,VALID,120,VALID,0.0703125,
2012-06-05, 03:07:04,VALID,1007.19,VALID,0,VALID,104,VALID,0,VALID,25.0388,VALID,120,VALID,0,
2012-06-05, 03:08:04,VALID,1007.17,VALID,0,VALID,104,VALID,0,VALID,25.0388,VALID,120,VALID,0,
2012-06-05, 03:09:04,VALID,1007.17,VALID,0,VALID,104,VALID,0,VALID,25.0583,VALID,120,VALID,0.00585938,
2012-06-05, 03:10:04,VALID,1007.17,VALID,0,VALID,104,VALID,0,VALID,25.0583,VALID,120,VALID,0.151953,
2012-06-05, 03:11:04,VALID,1007.19,VALID,0,VALID,104,VALID,0,VALID,25.0778,VALID,120,VALID,0.340625,
2012-06-05, 03:12:04,VALID,1007.17,VALID,0,VALID,104,VALID,0,VALID,25.0778,VALID,120,VALID,0.499219,
2012-06-05, 03:13:04,VALID,1007.18,VALID,0,VALID,104,VALID,0,VALID,25.0564,VALID,120,VALID,0.33125,
2012-06-05, 03:14:04,VALID,1007.19,VALID,0,VALID,104,VALID,0,VALID,25.0778,VALID,120,VALID,0.271875,
2012-06-05, 03:15:04,VALID,1007.21,VALID,0,VALID,104,VALID,0,VALID,25.0778,VALID,120,VALID,0.139453,
2012-06-05, 03:16:04,VALID,1007.19,VALID,0,VALID,104,VALID,0,VALID,25.0583,VALID,120,VALID,0.488281,
2012-06-05, 03:17:04,VALID,1007.18,VALID,0,VALID,104,VALID,0,VALID,25.0583,VALID,120,VALID,0.169531,
2012-06-05, 03:18:04,VALID,1007.14,VALID,0,VALID,104,VALID,0,VALID,25.0583,VALID,120,VALID,0.229687,
2012-06-05, 03:19:04,VALID,1007.14,VALID,0,VALID,104,VALID,0,VALID,25.0583,VALID,120,VALID,0.202734,
2012-06-05, 03:20:04,VALID,1007.09,VALID,0,VALID,104,VALID,0,VALID,25.0193,VALID,120,VALID,0.438281,
2012-06-05, 03:21:04,VALID,1007.07,VALID,0,VALID,104,VALID,0,VALID,24.9998,VALID,120,VALID,0.230469,
2012-06-05, 03:22:04,VALID,1007.05,VALID,0,VALID,104,VALID,0,VALID,24.9998,VALID,120,VALID,0.0140625,
2012-06-05, 03:23:04,VALID,1007.06,VALID,0,VALID,104,VALID,0,VALID,24.9998,VALID,120,VALID,0.601172,
2012-06-05, 03:24:04,VALID,1007.04,VALID,0,VALID,104,VALID,0,VALID,24.9998,VALID,120,VALID,0.202734,
2012-06-05, 03:25:04,VALID,1007.01,VALID,0,VALID,104,VALID,0,VALID,24.9998,VALID,120,VALID,0.0570313,
2012-06-05, 03:26:04,VALID,1006.98,VALID,0,VALID,104,VALID,0,VALID,24.9803,VALID,120,VALID,0.0199219,
2012-06-05, 03:27:04,VALID,1006.94,VALID,0,VALID,104,VALID,0,VALID,24.9803,VALID,120,VALID,0.414844,
2012-06-05, 03:28:04,VALID,1006.94,VALID,0,VALID,104,VALID,0,VALID,24.9998,VALID,120,VALID,0.434766,
2012-06-05, 03:29:04,VALID,1006.96,VALID,0,VALID,104,VALID,0,VALID,24.9998,VALID,111,VALID,0.460547,
2012-06-05, 03:30:04,VALID,1006.94,VALID,0,VALID,104,VALID,0,VALID,25.0193,VALID,111,VALID,0.204688,
2012-06-05, 03:31:04,VALID,1006.95,VALID,0,VALID,104,VALID,0,VALID,24.9998,VALID,111,VALID,0.046875,
2012-06-05, 03:32:04,VALID,1006.96,VALID,0,VALID,104,VALID,0,VALID,24.9803,VALID,111,VALID,0.248437,
2012-06-05, 03:33:04,VALID,1006.95,VALID,0,VALID,104,VALID,0,VALID,24.9608,VALID,111,VALID,0.280469,
2012-06-05, 03:34:04,VALID,1006.92,VALID,0,VALID,104,VALID,0,VALID,24.9218,VALID,111,VALID,0.128516,
2012-06-05, 03:35:04,VALID,1006.9,VALID,0,VALID,104,VALID,0,VALID,24.8828,VALID,111,VALID,0,
2012-06-05, 03:36:04,VALID,1006.91,VALID,0,VALID,104,VALID,0,VALID,24.8438,VALID,111,VALID,0.0710938,
2012-06-05, 03:37:04,VALID,1006.91,VALID,0,VALID,104,VALID,0,VALID,24.8049,VALID,111,VALID,0,
2012-06-05, 03:38:04,VALID,1006.92,VALID,0,VALID,104,VALID,0,VALID,24.7464,VALID,111,VALID,0,
2012-06-05, 03:39:04,VALID,1006.91,VALID,0,VALID,104,VALID,0,VALID,24.7269,VALID,111,VALID,0,
2012-06-05, 03:40:04,VALID,1006.89,VALID,0,VALID,104,VALID,0,VALID,24.7288,VALID,111,VALID,0,
2012-06-05, 03:41:04,VALID,1006.9,VALID,0,VALID,104,VALID,0,VALID,24.7074,VALID,111,VALID,0.151172,
2012-06-05, 03:42:04,VALID,1006.91,VALID,0,VALID,104,VALID,0,VALID,24.6879,VALID,111,VALID,0.101172,
2012-06-05, 03:43:04,VALID,1006.95,VALID,0,VALID,104,VALID,0,VALID,24.6703,VALID,111,VALID,0,
2012-06-05, 03:44:04,VALID,1006.96,VALID,0,VALID,104,VALID,0,VALID,24.6489,VALID,111,VALID,0,
2012-06-05, 03:45:04,VALID,1006.98,VALID,0,VALID,104,VALID,0,VALID,24.6489,VALID,111,VALID,0,
2012-06-05, 03:46:04,VALID,1007.01,VALID,0,VALID,104,VALID,0,VALID,24.6489,VALID,111,VALID,0,
2012-06-05, 03:47:04,VALID,1007,VALID,0,VALID,104,VALID,0,VALID,24.6294,VALID,111,VALID,0,
2012-06-05, 03:48:04,VALID,1006.97,VALID,0,VALID,104,VALID,0,VALID,24.6294,VALID,111,VALID,0,
2012-06-05, 03:49:04,VALID,1006.97,VALID,0,VALID,104,VALID,0,VALID,24.6489,VALID,111,VALID,0.09375,
2012-06-05, 03:50:04,VALID,1006.92,VALID,0,VALID,104,VALID,0,VALID,24.6294,VALID,111,VALID,0.241016,
2012-06-05, 03:51:04,VALID,1006.9,VALID,0,VALID,104,VALID,0,VALID,24.6489,VALID,111,VALID,0.0351563,
2012-06-05, 03:52:04,VALID,1006.91,VALID,0,VALID,104,VALID,0,VALID,24.6684,VALID,111,VALID,0,
2012-06-05, 03:53:04,VALID,1006.93,VALID,0,VALID,104,VALID,0,VALID,24.6684,VALID,111,VALID,0,
2012-06-05, 03:54:04,VALID,1006.92,VALID,0,VALID,104,VALID,0,VALID,24.7074,VALID,111,VALID,0.00351562,
2012-06-05, 03:55:04,VALID,1006.93,VALID,0,VALID,104,VALID,0,VALID,24.7659,VALID,111,VALID,0.313281,
2012-06-05, 03:56:04,VALID,1006.95,VALID,0,VALID,104,VALID,0,VALID,24.7659,VALID,111,VALID,0.137891,
2012-06-05, 03:57:04,VALID,1006.95,VALID,0,VALID,104,VALID,0,VALID,24.7464,VALID,111,VALID,0,
2012-06-05, 03:58:04,VALID,1006.97,VALID,0,VALID,104,VALID,0,VALID,24.7269,VALID,111,VALID,0,
2012-06-05, 03:59:04,VALID,1007.02,VALID,0,VALID,104,VALID,0,VALID,24.7483,VALID,111,VALID,0,
2012-06-05, 04:00:04,VALID,1007.01,VALID,0,VALID,104,VALID,0,VALID,24.686,VALID,111,VALID,0.104297,